Location: Bow
(51.5261°N, 0.0167°W)
Time: 22:34:54
(UTC+00:00)

Cosmos 1674 - Pass Details

Date: 18 September 2020
Orbit: 494 x 518 km, 82.5° (Epoch: 31 October)

Event Time Altitude Azimuth Distance (km) Brightness Sun altitude
Rises 20:37:09 0° 343° (NNW) 2,656 7.1 -22.8°
Reaches altitude 10° 20:39:23 10° 335° (NNW) 1,764 6.2 -23.0°
Maximum altitude 20:42:57 36° 268° (W) 834 4.1 -23.5°
Enters shadow 20:44:15 28° 226° (SW) 1,006 4.2 -23.7°
